EW8308 Weather Reports


Display with metric or nautical units.
time (UTC)temp
F
wind
direction
speed
MPH
gust
MPH
rain 1hr
in
rain 24hr
in
rain mn
in
humidity
%
barometer
mb
20260502170518 66 249 1.0 5.0 0.00 0.00 0.00 41 1016.7
20260502163013 63 250 2.0 5.0 0.00 0.00 0.00 42 1016.8
20260502162013 63 250 1.0 3.0 0.00 0.00 0.00 51 1016.9
20260502161012 62 250 1.0 3.0 0.00 0.00 0.00 50 1016.9
20260502152012 58 249 0.0 1.0 0.00 0.00 0.00 60 1016.9
20260502151513 56 250 1.0 3.0 0.00 0.00 0.00 59 1016.9
20260502151013 56 250 1.0 3.0 0.00 0.00 0.00 59 1016.9
20260502150513 55 250 0.0 3.0 0.00 0.00 0.00 61 1016.9
20260502130500 46 249 1.0 4.0 0.00 0.00 0.00 74 1016.4
20260502123500 46 250 1.0 4.0 0.00 0.00 0.00 72 1016.4
20260502123000 46 250 1.0 4.0 0.00 0.00 0.00 71 1016.3
20260502121958 47 250 0.0 5.0 0.00 0.00 0.00 69 1016.4
20260502121456 47 250 0.0 2.0 0.00 0.00 0.00 70 1016.4
20260502120455 46 250 1.0 2.0 0.00 0.00 0.00 72 1016.4
20260502115456 46 249 2.0 4.0 0.00 0.00 0.00 74 1016.4
20260502114954 46 250 3.0 4.0 0.00 0.00 0.00 75 1016.4
20260502114452 45 250 3.0 4.0 0.00 0.00 0.00 76 1016.4
20260502113952 45 250 2.0 4.0 0.00 0.00 0.00 76 1016.3
20260502113452 45 250 2.0 4.0 0.00 0.00 0.00 75 1016.3
20260502112950 45 250 2.0 3.0 0.00 0.00 0.00 75 1016.2
20260502112448 45 250 2.0 3.0 0.00 0.00 0.00 75 1016.3
20260502111448 46 250 1.0 2.0 0.00 0.00 0.00 74 1016.2
20260502110446 47 250 0.0 2.0 0.00 0.00 0.00 70 1016.2
20260502105945 47 250 1.0 3.0 0.00 0.00 0.00 71 1016.1
20260502105442 46 250 0.0 3.0 0.00 0.00 0.00 71 1016.1
20260502104440 47 250 0.0 0.0 0.00 0.00 0.00 71 1016.1
20260502103940 47 250 0.0 0.0 0.00 0.00 0.00 70 1016.2
20260502103438 48 250 1.0 3.0 0.00 0.00 0.00 68 1016.2
20260502102938 47 250 1.0 3.0 0.00 0.00 0.00 69 1016.2
20260502102436 48 250 1.0 2.0 0.00 0.00 0.00 67 1016.3
20260502101934 48 250 1.0 2.0 0.00 0.00 0.00 67 1016.2
20260502101431 48 250 1.0 4.0 0.00 0.00 0.00 68 1016.3
20260502100930 48 250 1.0 4.0 0.00 0.00 0.00 68 1016.2
20260502091419 48 250 1.0 3.0 0.00 0.00 0.00 67 1016.3
20260502090919 47 250 2.0 3.0 0.00 0.00 0.00 69 1016.2
20260502090418 47 250 1.0 3.0 0.00 0.00 0.00 70 1016.3
20260502071359 52 250 0.0 2.0 0.00 0.00 0.00 59 1016.3
20260502070359 53 250 0.0 0.0 0.00 0.00 0.00 58 1016.2
20260502064356 54 250 0.0 1.0 0.00 0.00 0.00 58 1016.3
20260502063855 53 250 0.0 1.0 0.00 0.00 0.00 58 1016.3
20260502061846 54 249 0.0 1.0 0.00 0.00 0.00 58 1016.2
20260502060845 55 250 0.0 2.0 0.00 0.00 0.00 56 1016.2
20260502060345 55 250 0.0 2.0 0.00 0.00 0.00 56 1016.2
20260502055845 55 249 1.0 2.0 0.00 0.00 0.00 55 1016.2
20260502055344 55 250 0.0 2.0 0.00 0.00 0.00 55 1016.3
20260502054342 55 250 0.0 0.0 0.00 0.00 0.00 54 1016.3
20260502053840 56 250 0.0 0.0 0.00 0.00 0.00 53 1016.3
20260502053338 56 250 0.0 1.0 0.00 0.00 0.00 52 1016.3
20260502052337 56 250 3.0 5.0 0.00 0.00 0.00 53 1016.3
20260502051838 55 250 2.0 5.0 0.00 0.00 0.00 56 1016.2
20260502050836 54 250 1.0 3.0 0.00 0.00 0.00 59 1016.3
20260502050334 54 250 0.0 3.0 0.00 0.00 0.00 57 1016.2
20260502045832 53 250 0.0 2.0 0.00 0.00 0.00 60 1016.3
20260502045332 54 250 1.0 3.0 0.00 0.00 0.00 59 1016.3
20260502044831 54 249 3.0 4.0 0.00 0.00 0.00 59 1016.3
20260502044332 55 250 3.0 4.0 0.00 0.00 0.00 59 1016.3
20260502043332 56 250 3.0 4.0 0.00 0.00 0.00 56 1016.3
20260502042831 57 250 3.0 5.0 0.00 0.00 0.00 54 1016.3
20260502041833 56 249 3.0 6.0 0.00 0.00 0.00 52 1016.3
20260502041330 56 250 2.0 5.0 0.00 0.00 0.00 56 1016.3
20260502040830 55 250 2.0 3.0 0.00 0.00 0.00 58 1016.3
20260502040328 56 250 3.0 4.0 0.00 0.00 0.00 58 1016.3
20260502035827 56 249 3.0 4.0 0.00 0.00 0.00 57 1016.2
20260502035326 57 250 3.0 4.0 0.00 0.00 0.00 56 1016.2
20260502034322 57 250 3.0 4.0 0.00 0.00 0.00 55 1016.1
20260502032821 58 250 3.0 4.0 0.00 0.00 0.00 53 1015.8
20260502032321 58 250 3.0 4.0 0.00 0.00 0.00 53 1015.8
20260502031820 59 250 3.0 4.0 0.00 0.00 0.00 55 1015.8
20260502031318 60 250 2.0 4.0 0.00 0.00 0.00 54 1015.7
20260502030818 60 250 3.0 3.0 0.00 0.00 0.00 53 1015.6
20260502030318 60 250 3.0 4.0 0.00 0.00 0.00 52 1015.6
20260502025817 61 249 3.0 4.0 0.00 0.00 0.00 51 1015.6
20260502025317 62 249 3.0 3.0 0.00 0.00 0.00 49 1015.5
20260502024818 63 250 3.0 3.0 0.00 0.00 0.00 48 1015.5
20260502024317 64 250 2.0 3.0 0.00 0.00 0.00 48 1015.5
20260502023816 65 249 2.0 3.0 0.00 0.00 0.00 45 1015.5
20260502023316 65 249 2.0 3.0 0.00 0.00 0.00 45 1015.5
20260502022814 66 250 1.0 3.0 0.00 0.00 0.00 45 1015.5
20260502022314 68 249 0.0 0.0 0.00 0.00 0.00 47 1015.5
20260502021812 69 249 0.0 0.0 0.00 0.00 0.00 41 1015.5
20260502021312 70 250 0.0 0.0 0.00 0.00 0.00 38 1015.5
20260502020812 71 250 0.0 0.0 0.00 0.00 0.00 32 1015.5
20260502015812 72 250 0.0 0.0 0.00 0.00 0.00 28 1015.5
20260502015310 72 249 0.0 0.0 0.00 0.00 0.00 27 1015.5
20260502014808 72 250 0.0 0.0 0.00 0.00 0.00 28 1015.5
20260502013806 72 249 0.0 0.0 0.00 0.00 0.00 28 1015.6
20260502013306 72 249 0.0 0.0 0.00 0.00 0.00 28 1015.6
20260502012804 72 249 0.0 0.0 0.00 0.00 0.00 28 1015.6
20260502011801 73 249 0.0 1.0 0.00 0.00 0.00 28 1015.6
20260502011258 73 250 0.0 1.0 0.00 0.00 0.00 30 1015.7
20260502010756 73 250 0.0 2.0 0.00 0.00 0.00 28 1015.7
20260502010254 73 250 0.0 3.0 0.00 0.00 0.00 32 1015.8
20260502005752 74 250 0.0 3.0 0.00 0.00 0.00 26 1016.0
20260502005251 73 250 0.0 2.0 0.00 0.00 0.00 28 1016.0
20260502004247 73 249 0.0 2.0 0.00 0.00 0.00 28 1016.0
20260502003745 73 250 0.0 1.0 0.00 0.00 0.00 28 1016.1
20260502003242 73 250 0.0 1.0 0.00 0.00 0.00 27 1016.1
20260502002740 73 250 0.0 1.0 0.00 0.00 0.00 28 1016.2
20260502001736 73 250 0.0 2.0 0.00 0.00 0.00 26 1016.3
20260502001234 73 250 0.0 2.0 0.00 0.00 0.00 30 1016.3
20260502000732 73 249 0.0 3.0 0.00 0.00 0.00 26 1016.3
20260502000233 73 250 1.0 4.0 0.00 0.00 0.00 27 1016.4
20260501235729 73 250 1.0 4.0 0.00 0.00 0.00 27 1016.4
20260501235228 73 250 1.0 4.0 0.00 0.00 0.00 26 1016.4
20260501234726 73 249 1.0 4.0 0.00 0.00 0.00 28 1016.4
20260501234227 73 249 3.0 9.0 0.00 0.00 0.00 26 1016.4
20260501233727 72 250 5.0 11.0 0.00 0.00 0.00 27 1016.5
20260501233227 73 250 5.0 11.0 0.00 0.00 0.00 26 1016.5
20260501232726 73 250 4.0 7.0 0.00 0.00 0.00 28 1016.6
20260501232225 73 249 3.0 7.0 0.00 0.00 0.00 28 1016.6
20260501231726 73 250 3.0 8.0 0.00 0.00 0.00 27 1016.7
20260501231224 73 249 3.0 9.0 0.00 0.00 0.00 26 1016.7
20260501230723 73 249 3.0 9.0 0.00 0.00 0.00 27 1016.8
20260501230222 73 249 2.0 7.0 0.00 0.00 0.00 29 1016.8
20260501225220 74 249 1.0 8.0 0.00 0.00 0.00 30 1016.9
20260501224718 74 249 1.0 5.0 0.00 0.00 0.00 31 1017.0
20260501224219 73 250 2.0 9.0 0.00 0.00 0.00 28 1017.1
20260501223718 72 249 3.0 9.0 0.00 0.00 0.00 28 1017.1
20260501223217 72 249 4.0 8.0 0.00 0.00 0.00 28 1017.3
20260501222716 72 250 5.0 9.0 0.00 0.00 0.00 26 1017.4
20260501222216 72 250 4.0 9.0 0.00 0.00 0.00 31 1017.4
20260501221715 72 249 3.0 8.0 0.00 0.00 0.00 30 1017.5
20260501220715 72 249 3.0 8.0 0.00 0.00 0.00 26 1017.6
20260501220215 72 250 3.0 7.0 0.00 0.00 0.00 34 1017.6
20260501215714 72 249 4.0 8.0 0.00 0.00 0.00 27 1017.7
20260501215212 72 250 4.0 8.0 0.00 0.00 0.00 27 1017.7
20260501214711 72 250 5.0 8.0 0.00 0.00 0.00 27 1017.8
20260501214211 72 250 4.0 9.0 0.00 0.00 0.00 27 1017.8
20260501213709 72 249 2.0 9.0 0.00 0.00 0.00 26 1017.9
20260501213210 72 249 3.0 7.0 0.00 0.00 0.00 29 1017.8
20260501212709 72 250 3.0 7.0 0.00 0.00 0.00 26 1017.9
20260501212209 72 250 3.0 8.0 0.00 0.00 0.00 25 1018.0
20260501211708 72 250 3.0 8.0 0.00 0.00 0.00 27 1018.0
20260501210706 72 250 3.0 8.0 0.00 0.00 0.00 28 1018.0
20260501210205 72 250 4.0 12.0 0.00 0.00 0.00 30 1018.1
20260501205704 71 250 4.0 12.0 0.00 0.00 0.00 28 1018.1
20260501205202 71 249 2.0 7.0 0.00 0.00 0.00 30 1018.1
20260501204703 71 249 3.0 7.0 0.00 0.00 0.00 28 1018.1
20260501204203 71 250 4.0 10.0 0.00 0.00 0.00 34 1018.1
20260501203703 71 249 4.0 10.0 0.00 0.00 0.00 33 1018.1
20260501202659 71 249 4.0 10.0 0.00 0.00 0.00 29 1018.2
20260501202157 71 250 5.0 10.0 0.00 0.00 0.00 28 1018.3
20260501201658 71 250 6.0 10.0 0.00 0.00 0.00 30 1018.3
20260501201159 71 250 6.0 10.0 0.00 0.00 0.00 32 1018.2
20260501200657 71 250 4.0 10.0 0.00 0.00 0.00 34 1018.3
20260501195656 70 250 3.0 7.0 0.00 0.00 0.00 30 1018.3
20260501195156 70 250 4.0 8.0 0.00 0.00 0.00 28 1018.4
20260501194656 70 250 4.0 8.0 0.00 0.00 0.00 31 1018.6
20260501194156 70 249 3.0 6.0 0.00 0.00 0.00 30 1018.4
20260501193654 70 250 4.0 6.0 0.00 0.00 0.00 30 1018.6
20260501193154 70 250 3.0 6.0 0.00 0.00 0.00 35 1018.6
20260501192654 69 249 2.0 6.0 0.00 0.00 0.00 31 1018.7
20260501191654 68 250 5.0 8.0 0.00 0.00 0.00 33 1018.7
20260501191154 68 249 6.0 9.0 0.00 0.00 0.00 34 1018.8
20260501190654 68 249 6.0 9.0 0.00 0.00 0.00 40 1018.8
20260501190153 68 249 5.0 9.0 0.00 0.00 0.00 36 1018.8
20260501185653 68 250 5.0 9.0 0.00 0.00 0.00 40 1018.8
20260501185154 68 250 5.0 9.0 0.00 0.00 0.00 36 1018.9
20260501184152 67 250 5.0 9.0 0.00 0.00 0.00 37 1018.9
20260501182652 67 250 6.0 10.0 0.00 0.00 0.00 40 1019.0
20260501182153 67 250 5.0 10.0 0.00 0.00 0.00 39 1019.1
20260501181653 67 250 6.0 10.0 0.00 0.00 0.00 35 1019.1
20260501181153 66 249 7.0 11.0 0.00 0.00 0.00 34 1019.1
20260501180652 66 250 7.0 12.0 0.00 0.00 0.00 35 1019.1
20260501180153 66 250 7.0 12.0 0.00 0.00 0.00 38 1019.1
20260501175652 67 250 6.0 11.0 0.00 0.00 0.00 39 1019.1
20260501175152 67 249 6.0 10.0 0.00 0.00 0.00 39 1019.1
20260501174652 66 250 5.0 9.0 0.00 0.00 0.00 39 1019.1
20260501174152 66 250 5.0 8.0 0.00 0.00 0.00 36 1019.2
20260501173653 66 249 4.0 9.0 0.00 0.00 0.00 39 1019.2
20260501173152 65 250 4.0 9.0 0.00 0.00 0.00 35 1019.2
20260501172652 65 249 2.0 6.0 0.00 0.00 0.00 36 1019.2
20260501172153 65 249 2.0 6.0 0.00 0.00 0.00 37 1019.3
20260501171651 64 250 3.0 8.0 0.00 0.00 0.00 40 1019.3